This is the latest recevied weather packets stored in our database for station/object N6RDS-8. If no packets are shown the sender has not sent any weather packets the latest 10 day(s).
| Time | Temp. | Humidity | Pressure | Rain* | Wind** | Luminosity | Snow |
|---|---|---|---|---|---|---|---|
| 1778189847 | 28.89° C | 18% | 1015.7 hPa | 0 mm | - | 455 W/m² | - |
| 1778189545 | 28.89° C | 19% | 1015.5 hPa | 0 mm | - | 789 W/m² | - |
| 1778189241 | 28.33° C | 19% | 1015.7 hPa | 0 mm | - | 258 W/m² | - |
| 1778188938 | 28.33° C | 19% | 1015.7 hPa | 0 mm | - | 241 W/m² | - |
| 1778188634 | 27.78° C | 19% | 1015.8 hPa | 0 mm | - | 233 W/m² | - |
| 1778188330 | 27.78° C | 19% | 1015.9 hPa | 0 mm | - | 211 W/m² | - |
| 1778188028 | 28.33° C | 19% | 1015.9 hPa | 0 mm | - | 216 W/m² | - |
| 1778187724 | 27.78° C | 19% | 1016 hPa | 0 mm | - | 256 W/m² | - |
| 1778187421 | 28.33° C | 19% | 1016.1 hPa | 0 mm | - | 640 W/m² | - |
| 1778187117 | 28.89° C | 19% | 1016.1 hPa | 0 mm | - | 908 W/m² | - |
| 1778186813 | 29.44° C | 20% | 1016.2 hPa | 0 mm | - | 859 W/m² | - |
| 1778186512 | 29.44° C | 18% | 1016.2 hPa | 0 mm | - | 840 W/m² | - |
| 1778186209 | 30° C | 19% | 1016.4 hPa | 0 mm | - | 824 W/m² | - |
| 1778185906 | 30° C | 18% | 1016.2 hPa | 0 mm | - | 825 W/m² | - |
| 1778185602 | 29.44° C | 18% | 1016.1 hPa | 0 mm | - | 833 W/m² | - |
| 1778185298 | 29.44° C | 18% | 1016.7 hPa | 0 mm | - | 878 W/m² | - |
| 1778184993 | 29.44° C | 18% | 1016.6 hPa | 0 mm | - | 734 W/m² | - |
| 1778184691 | 29.44° C | 19% | 1016.8 hPa | 0 mm | - | 863 W/m² | - |
| 1778184386 | 28.33° C | 19% | 1016.8 hPa | 0 mm | - | 869 W/m² | - |
| 1778184083 | 28.89° C | 18% | 1016.8 hPa | 0 mm | - | 885 W/m² | - |
| 1778183780 | 28.89° C | 19% | 1016.9 hPa | 0 mm | - | 881 W/m² | - |
| 1778183477 | 27.78° C | 19% | 1017 hPa | 0 mm | - | 888 W/m² | - |
| 1778183174 | 27.78° C | 19% | 1017 hPa | 0 mm | - | 259 W/m² | - |
| 1778182869 | 29.44° C | 19% | 1017.1 hPa | 0 mm | - | 840 W/m² | - |
| 1778182566 | 28.89° C | 19% | 1017.1 hPa | 0 mm | - | 836 W/m² | - |
* Rain latest hour (hover to see other rain measurements)
** Current wind speed in m/s (hover to see current wind gust speed)